Regional Weather Roundup
Issued by NWS

Home | Current Version | Previous Version | Graphics & Text | Print | Product List | Glossary Off
Versions: 1 2 3 4 5 6 7 8 9 10 11 12 13 14 15 16 17 18 19 20 21 22 23 24 25 26 27 28 29 30 31 32 33 34 35 36 37 38 39 40 41 42 43 44 45 46 47 48 49 50

000
ASUS43 KMKX 180711
RWRWI

WISCONSIN REGIONAL WEATHER ROUNDUP
NATIONAL WEATHER SERVICE MILWAUKEE/SULLIVAN WI
200 AM CDT WED OCT 18 2017

NOTE: "FAIR" INDICATES FEW OR NO CLOUDS BELOW 12,000 FEET WITH NO
SIGNIFICANT WEATHER AND/OR OBSTRUCTIONS TO VISIBILITY.

WIZ001-002-006>008-014>016-023>028-180800-
NORTHWEST WISCONSIN

CITY           SKY/WX    TMP DP  RH WIND       PRES   REMARKS
SUPERIOR ARPT  CLEAR     39  39  98 W5        29.80F
ASHLAND        CLEAR     57  44  62 SW12      29.84F
HAYWARD        CLEAR     55  43  63 S10       29.88F
SIREN          CLEAR     57  42  57 S7        29.86S
CUMBERLAND     CLEAR     46  41  81 S7        29.89F
RICE LAKE      CLEAR     49  43  79 SE5       29.92S
CHETEK         CLEAR     52  45  76 SE3       29.91F
LADYSMITH      CLEAR     51  44  77 S6        29.94S
EAU CLAIRE     CLEAR     48  45  89 S5        29.93S
MENOMONIE      CLEAR     54  44  69 SE5       29.92F
NEW RICHMOND   CLEAR     53  43  67 S9        29.89F
OSCEOLA        CLEAR     53  44  71 S5        29.91S
$$

WIZ003>005-009-010-017-018-180800-
NORTH CENTRAL WISCONSIN

CITY           SKY/WX    TMP DP  RH WIND       PRES   REMARKS
MANITOWISH WTR CLEAR     48  45  90 S7        29.92S
ARBOR VITAE    CLEAR     52  45  78 S8        29.93F
WOODRUFF       CLEAR     52  45  78 S8        29.93F
RHINELANDER    CLEAR     53  45  74 SW8       29.96F
EAGLE RIVER    CLEAR     49  42  76 CALM      29.94F
LAND O LAKES   CLEAR     48  43  82 S3        29.95F
PHILLIPS       CLEAR     51  44  79 S6        29.92F
TOMAHAWK       CLEAR     46  42  88 CALM      29.96F
MEDFORD        CLEAR     52  43  71 S9        29.96F
MERRILL        CLEAR     53  45  74 SW6       29.98S
$$

WIZ029-030-035-036-043>047-180800-
CENTRAL WISCONSIN

CITY           SKY/WX    TMP DP  RH WIND       PRES   REMARKS
WAUSAU         CLEAR     49  44  83 SE3       29.97S
MOSINEE        CLEAR     50  45  81 S9        30.00S
MARSHFIELD     CLEAR     48  41  76 S9        29.98S
STEVENS POINT  CLEAR     47  42  82 S6        30.01S
WAUPACA        CLEAR     51  44  78 S5        30.02S
WAUTOMA        CLEAR     41  40  96 CALM      30.04S
WISC RAPIDS    CLEAR     51  45  79 S6        30.01S
CAMP DOUGLAS   CLEAR     57  44  62 S12       30.01S
$$

WIZ011>013-019>022-031-037>040-048>050-180800-
NORTHEAST WISCONSIN

CITY           SKY/WX    TMP DP  RH WIND       PRES   REMARKS
ANTIGO         CLEAR     49  43  80 SW7       29.99S
SHAWANO        CLEAR     53  45  74 CALM      30.00S
OCONTO         CLEAR     53  45  73 SW7       30.00S
STURGEON BAY   CLEAR     57  45  64 SW10      30.01S
GREEN BAY      CLEAR     55  47  74 S8        30.02S
MANITOWOC      CLEAR     57  42  57 S8        30.05S
APPLETON       CLEAR     52  41  66 SW10      30.01F
CLINTONVILLE   CLEAR     52  43  71 SW6       30.01S
OSHKOSH        CLEAR     52  43  71 S10       30.03F
$$

WIZ032>034-041-042-053>061-180800-
SOUTHWEST WISCONSIN

CITY           SKY/WX    TMP DP  RH WIND       PRES   REMARKS
LA CROSSE      CLEAR     58  46  64 S8        29.99S
SPARTA         CLEAR     52  44  73 S5        30.01S
VIROQUA        CLEAR     54  45  70 S8        30.02S
BOSCOBEL       CLEAR     44  42  93 CALM      30.05S FOG
PRAIRIE DU CHI CLEAR     57  42  57 CALM      30.03S
PLATTEVILLE    CLEAR     50  44  79 S7        30.07S
$$

WIZ056-057-062-063-064-067-068-180800-
SOUTH CENTRAL WISCONSIN

CITY           SKY/WX    TMP DP  RH WIND       PRES   REMARKS
REEDSBURG      CLEAR     53  43  69 S7        30.04S
BARABOO/DELLS  CLEAR     54  41  62 S9        30.04F
LONE ROCK      CLEAR     49  43  80 SE3       30.05F
MINERAL POINT  CLEAR     52  45  76 S9        30.07S
MADISON        NOT AVBL
MIDDLETON      CLEAR     53  42  66 S9        30.07F
WATERTOWN      CLEAR     52  44  74 S8        30.08F
MONROE         CLEAR     48  41  76 S10       30.08S
JANESVILLE     CLEAR     52  41  66 S6        30.10S
$$

WIZ051-052-058>065-066-070>072-180800-
SOUTHEAST WISCONSIN

CITY           SKY/WX    TMP DP  RH WIND       PRES   REMARKS
MILWAUKEE      PTCLDY    55  42  61 SW10      30.11S
WAUKESHA       CLEAR     52  39  62 SW6       30.11S
MILWAUKEE/TIMM CLEAR     54  37  54 SW8       30.10S
RACINE         CLEAR     53  42  66 SW9       30.13S
BURLINGTON     CLEAR     51  43  74 SW9       30.12S
KENOSHA        CLEAR     51  40  65 SW6       30.12F
FOND DU LAC    CLEAR     56  40  55 SW10      30.05F
SHEBOYGAN      CLEAR     52  43  71 SW9       30.06S
WEST BEND      CLEAR     55  39  54 SW10      30.08S
JUNEAU         CLEAR     51  42  71 S7        30.09S
$$

LSZ147-162-180800-
LAKE SUPERIOR

STATION/POSITION TIME  TEMP    WIND        PRES    WAVE
                       AIR SEA DIR/SP/G            HT/PER
                 (UTC) (F)     (DEG/KT/KT) (MB)    (FT/S)
W MID LAKE BUOY  0550   56 53              1009.8F   1/ 3
DEVILS ISLAND    0600   60     190/ 10/ 14 1009.8F
SAXON HARBOR     0640   61     190/  9/ 14 1010.2S
$$

LMZ867-665-643>646-180800-
LAKE MICHIGAN

STATION/POSITION TIME  TEMP    WIND        PRES    WAVE
                       AIR SEA DIR/SP/G            HT/PER
                 (UTC) (F)     (DEG/KT/KT) (MB)    (FT/S)
S GREEN BAY BUOY 0700   59 58  220/ 16/ 19 1015.6
N MID LAKE BUOY  0650   61 59  200/ 16/ 19 1016.1F   3/ 7
NORTHPORT PIER   0640   54     160/  3/  6 1015.6R
KEWAUNEE LAKESHO 0642          200/  8/ 11 1015.8F
SHEBOYGAN LAKESH 0700   55     210/ 10/ 10 1017.7S
PORT WASHINGTON  0630   56     210/  3/  7 1019.6S
MILWAUKEE LAKESH 0650   57     230/ 10/ 11   N/A
S MID LAKE BUOY  0650   61 61  240/ 17/ 21 1020.3R   4/ 5
KENOSHA   LAKESH 0650   54     200/  9/ 10 1020.0S
$$

TC  - TEMPERATURE IN CELSIUS
VSB - VISIBILITY IN STATUTE MILES
WCI - WIND CHILL INDEX
HX  - HEAT INDEX




USA.gov is the U.S. government's official web portal to all federal, state and local government web resources and services.